This is the latest recevied weather packets stored in our database for station/object KC0RKM-13. If no packets are shown the sender has not sent any weather packets the latest 10 day(s).
| Time | Temp. | Humidity | Pressure | Rain* | Wind** | Luminosity | Snow |
|---|---|---|---|---|---|---|---|
| 1787763003 | 30.56° C | 63% | 1016.9 hPa | 0 mm | - | - | - |
| 1787762404 | 31.11° C | 59% | 1017.1 hPa | 0 mm | - | - | - |
| 1787761804 | 31.11° C | 61% | 1017.4 hPa | 0 mm | - | - | - |
| 1787761204 | 30° C | 63% | 1017.2 hPa | 0 mm | - | - | - |
| 1787760604 | 30° C | 64% | 1017.2 hPa | 0 mm | - | - | - |
| 1787760004 | 28.89° C | 67% | 1017.4 hPa | 0 mm | - | - | - |
| 1787759404 | 28.89° C | 68% | 1017.3 hPa | 0 mm | - | - | - |
| 1787758804 | 28.33° C | 68% | 1017.3 hPa | 0 mm | - | - | - |
| 1787758204 | 28.33° C | 70% | 1017.2 hPa | 0 mm | - | - | - |
| 1787757604 | 27.78° C | 74% | 1017.3 hPa | 0 mm | - | - | - |
| 1787757004 | 27.22° C | 77% | 1017.3 hPa | 0 mm | - | - | - |
| 1787756403 | 26.11° C | 82% | 1017.4 hPa | 0 mm | - | - | - |
| 1787755803 | 26.11° C | 82% | 1017.3 hPa | 0 mm | - | - | - |
| 1787755204 | 26.11° C | 84% | 1017.4 hPa | 0 mm | - | - | - |
| 1787754603 | 25.56° C | 85% | 1017.4 hPa | 0 mm | - | - | - |
| 1787754004 | 25° C | 86% | 1017.6 hPa | 0 mm | - | - | - |
| 1787753403 | 25° C | 87% | 1017.5 hPa | 0 mm | - | - | - |
| 1787752804 | 24.44° C | 88% | 1017.4 hPa | 0 mm | - | - | - |
| 1787752204 | 23.89° C | 92% | 1017.6 hPa | 0 mm | - | - | - |
| 1787751603 | 23.33° C | 95% | 1017.7 hPa | 0 mm | - | - | - |
| 1787751004 | 22.78° C | 96% | 1017.5 hPa | 0 mm | - | - | - |
| 1787750404 | 22.78° C | 96% | 1017.5 hPa | 0 mm | - | - | - |
| 1787749803 | 22.78° C | 96% | 1017.3 hPa | 0 mm | - | - | - |
| 1787749203 | 22.78° C | 97% | 1017.3 hPa | 0 mm | - | - | - |
| 1787748604 | 22.22° C | 97% | 1017.3 hPa | 0 mm | - | - | - |
* Rain latest hour (hover to see other rain measurements)
** Current wind speed in m/s (hover to see current wind gust speed)